When you browse on this site, cookies collect data to enhance your experience and personalize the content and advertising you see.
Visit our Privacy Policy to learn more. By continuing to use the site, you agree to this use of cookies and data.
  • In United Kingdom
  • List of Countries
  • For 7 days
  • Water Temperature
  • Weather Map
  • Weather Widgets
  • user-avatar
    Login

    Hourly Weather Petyky

    Today, 25 August, Sunday

    Time Temperature Precipitation Wind Pressure Humidity
    00:00 +18°C° 0 mm 3 mps 749 mmHg 77%
    01:00 +18°C° 0 mm 3 mps 749 mmHg 78%
    02:00 +17°C° 0 mm 3 mps 749 mmHg 80%
    03:00 +17°C° 0 mm 3 mps 749 mmHg 81%
    04:00 +17°C° 0 mm 3 mps 749 mmHg 82%
    05:00 +17°C° 0 mm 3 mps 749 mmHg 83%
    06:00 +18°C° 0 mm 3 mps 749 mmHg 81%
    07:00 +19°C° 0 mm 4 mps 749 mmHg 79%
    08:00 +20°C° 0 mm 4 mps 749 mmHg 77%
    09:00 +21°C° 0 mm 4 mps 749 mmHg 73%
    10:00 +23°C° 0 mm 4 mps 749 mmHg 69%
    11:00 +26°C° 0 mm 4 mps 749 mmHg 65%
    12:00 +27°C° 0 mm 4 mps 749 mmHg 63%
    13:00 +28°C° 0 mm 4 mps 748 mmHg 62%
    14:00 +29°C° 0 mm 4 mps 749 mmHg 58%
    15:00 +29°C° 0 mm 4 mps 748 mmHg 60%
    16:00 +29°C° 0 mm 4 mps 748 mmHg 62%
    17:00 +28°C° 0 mm 4 mps 748 mmHg 64%
    18:00 +27°C° 0 mm 4 mps 748 mmHg 70%
    19:00 +25°C° 0 mm 3 mps 748 mmHg 76%
    20:00 +22°C° 0 mm 3 mps 748 mmHg 83%
    21:00 +21°C° 0.1 mm 3 mps 748 mmHg 83%
    22:00 +21°C° 0.1 mm 4 mps 748 mmHg 84%
    23:00 +20°C° 0.1 mm 4 mps 748 mmHg 85%

    Tomorrow, 26 August, Monday

    Time Temperature Precipitation Wind Pressure Humidity
    00:00 +19°C° 0 mm 4 mps 748 mmHg 86%
    01:00 +19°C° 0 mm 3 mps 748 mmHg 87%
    02:00 +18°C° 0 mm 3 mps 749 mmHg 88%
    03:00 +18°C° 0 mm 3 mps 748 mmHg 89%
    04:00 +17°C° 0 mm 3 mps 748 mmHg 90%
    05:00 +17°C° 0 mm 3 mps 748 mmHg 91%
    06:00 +18°C° 0 mm 3 mps 748 mmHg 87%
    07:00 +19°C° 0 mm 3 mps 748 mmHg 84%
    08:00 +20°C° 0 mm 3 mps 748 mmHg 80%
    09:00 +21°C° 0 mm 3 mps 748 mmHg 75%
    10:00 +24°C° 0 mm 3 mps 748 mmHg 70%
    11:00 +26°C° 0 mm 3 mps 748 mmHg 65%
    12:00 +27°C° 0 mm 3 mps 748 mmHg 62%
    13:00 +28°C° 0 mm 3 mps 748 mmHg 59%
    14:00 +30°C° 0 mm 4 mps 748 mmHg 56%
    15:00 +30°C° 0 mm 3 mps 748 mmHg 57%
    16:00 +30°C° 0 mm 3 mps 747 mmHg 58%
    17:00 +30°C° 0 mm 3 mps 747 mmHg 59%
    18:00 +28°C° 0 mm 3 mps 747 mmHg 65%
    19:00 +26°C° 0 mm 3 mps 747 mmHg 70%
    20:00 +24°C° 0 mm 3 mps 747 mmHg 75%
    21:00 +22°C° 0 mm 3 mps 747 mmHg 75%
    22:00 +21°C° 0 mm 3 mps 747 mmHg 75%
    23:00 +20°C° 0 mm 3 mps 747 mmHg 75%

    Day after tomorrow, 27 August, Tuesday

    Time Temperature Precipitation Wind Pressure Humidity
    00:00 +20°C° 0 mm 3 mps 747 mmHg 74%
    01:00 +20°C° 0 mm 3 mps 747 mmHg 73%
    02:00 +19°C° 0 mm 3 mps 747 mmHg 72%
    03:00 +19°C° 0 mm 3 mps 747 mmHg 71%
    04:00 +18°C° 0 mm 3 mps 747 mmHg 71%
    05:00 +18°C° 0 mm 2 mps 747 mmHg 71%
    06:00 +19°C° 0 mm 3 mps 747 mmHg 70%
    07:00 +20°C° 0 mm 3 mps 747 mmHg 69%
    08:00 +21°C° 0 mm 3 mps 747 mmHg 68%
    09:00 +22°C° 0 mm 3 mps 748 mmHg 64%
    10:00 +25°C° 0 mm 4 mps 748 mmHg 61%
    11:00 +27°C° 0 mm 4 mps 748 mmHg 57%
    12:00 +28°C° 0 mm 4 mps 748 mmHg 54%
    13:00 +29°C° 0 mm 4 mps 748 mmHg 51%
    14:00 +30°C° 0 mm 4 mps 748 mmHg 48%
    15:00 +30°C° 0 mm 4 mps 747 mmHg 51%
    16:00 +29°C° 0 mm 4 mps 747 mmHg 54%
    17:00 +29°C° 0 mm 4 mps 747 mmHg 57%
    18:00 +27°C° 0 mm 3 mps 747 mmHg 62%
    19:00 +25°C° 0 mm 3 mps 747 mmHg 68%
    20:00 +22°C° 0 mm 3 mps 747 mmHg 73%
    21:00 +21°C° 0 mm 3 mps 747 mmHg 73%
    22:00 +20°C° 0 mm 3 mps 747 mmHg 74%
    23:00 +20°C° 0 mm 3 mps 747 mmHg 74%

    28 August, Wednesday

    Time Temperature Precipitation Wind Pressure Humidity
    00:00 +19°C° 0 mm 3 mps 747 mmHg 74%
    01:00 +19°C° 0 mm 3 mps 747 mmHg 75%
    02:00 +18°C° 0 mm 3 mps 747 mmHg 75%
    03:00 +18°C° 0 mm 3 mps 747 mmHg 76%
    04:00 +17°C° 0 mm 3 mps 747 mmHg 77%
    05:00 +17°C° 0 mm 3 mps 747 mmHg 77%
    06:00 +18°C° 0 mm 3 mps 747 mmHg 75%
    07:00 +19°C° 0 mm 3 mps 747 mmHg 72%
    08:00 +20°C° 0 mm 4 mps 747 mmHg 69%
    09:00 +22°C° 0 mm 4 mps 747 mmHg 65%
    10:00 +25°C° 0 mm 3 mps 747 mmHg 60%
    11:00 +27°C° 0 mm 3 mps 747 mmHg 56%
    12:00 +28°C° 0 mm 3 mps 746 mmHg 54%
    13:00 +29°C° 0 mm 3 mps 746 mmHg 51%
    14:00 +30°C° 0 mm 3 mps 746 mmHg 49%
    15:00 +30°C° 0 mm 3 mps 746 mmHg 51%
    16:00 +30°C° 0 mm 3 mps 746 mmHg 52%
    17:00 +30°C° 0 mm 3 mps 745 mmHg 54%
    18:00 +28°C° 0 mm 3 mps 745 mmHg 59%
    19:00 +26°C° 0 mm 4 mps 745 mmHg 63%
    20:00 +23°C° 0 mm 4 mps 745 mmHg 68%
    21:00 +22°C° 0 mm 4 mps 745 mmHg 68%
    22:00 +21°C° 0 mm 4 mps 745 mmHg 68%
    23:00 +20°C° 0 mm 4 mps 745 mmHg 68%

    29 August, Thursday

    Time Temperature Precipitation Wind Pressure Humidity
    00:00 +20°C° 0 mm 4 mps 745 mmHg 68%
    01:00 +19°C° 0 mm 4 mps 745 mmHg 67%
    02:00 +19°C° 0 mm 3 mps 745 mmHg 66%
    03:00 +18°C° 0 mm 3 mps 745 mmHg 67%
    04:00 +18°C° 0 mm 3 mps 745 mmHg 69%
    05:00 +17°C° 0 mm 3 mps 745 mmHg 70%
    06:00 +18°C° 0 mm 3 mps 745 mmHg 70%
    07:00 +19°C° 0 mm 3 mps 745 mmHg 69%
    08:00 +20°C° 0 mm 4 mps 745 mmHg 69%
    09:00 +22°C° 0 mm 4 mps 745 mmHg 65%
    10:00 +25°C° 0 mm 4 mps 745 mmHg 61%
    11:00 +26°C° 0 mm 4 mps 745 mmHg 57%
    12:00 +28°C° 0 mm 4 mps 745 mmHg 55%
    13:00 +29°C° 0 mm 4 mps 745 mmHg 52%
    14:00 +30°C° 0 mm 4 mps 744 mmHg 50%
    15:00 +30°C° 0 mm 3 mps 744 mmHg 51%
    16:00 +30°C° 0 mm 3 mps 744 mmHg 53%
    17:00 +29°C° 0 mm 3 mps 744 mmHg 55%
    18:00 +27°C° 0.2 mm 3 mps 744 mmHg 63%
    19:00 +25°C° 0.2 mm 3 mps 744 mmHg 71%
    20:00 +21°C° 0.2 mm 3 mps 744 mmHg 79%
    21:00 +20°C° 0.4 mm 3 mps 744 mmHg 80%
    22:00 +20°C° 0.4 mm 2 mps 744 mmHg 82%
    23:00 +19°C° 0.4 mm 2 mps 744 mmHg 84%

    30 August, Friday

    Time Temperature Precipitation Wind Pressure Humidity
    00:00 +18°C° 0 mm 2 mps 744 mmHg 84%
    01:00 +18°C° 0 mm 2 mps 744 mmHg 85%
    02:00 +19°C° 0 mm 1 mps 744 mmHg 86%
    03:00 +18°C° 0 mm 1 mps 744 mmHg 86%
    04:00 +18°C° 0 mm 1 mps 744 mmHg 86%
    05:00 +18°C° 0 mm 1 mps 744 mmHg 87%
    06:00 +19°C° 0 mm 1 mps 744 mmHg 84%
    07:00 +20°C° 0 mm 1 mps 744 mmHg 82%
    08:00 +21°C° 0 mm 1 mps 744 mmHg 80%
    09:00 +22°C° 0 mm 1 mps 745 mmHg 75%
    10:00 +24°C° 0 mm 1 mps 745 mmHg 70%
    11:00 +26°C° 0 mm 1 mps 745 mmHg 65%
    12:00 +27°C° 0 mm 1 mps 745 mmHg 62%
    13:00 +28°C° 0 mm 1 mps 745 mmHg 59%
    14:00 +29°C° 0 mm 1 mps 745 mmHg 56%
    15:00 +29°C° 0.1 mm 1 mps 745 mmHg 57%
    16:00 +29°C° 0.1 mm 1 mps 745 mmHg 58%
    17:00 +28°C° 0.1 mm 1 mps 744 mmHg 58%
    18:00 +27°C° 0.3 mm 1 mps 745 mmHg 64%
    19:00 +25°C° 0.3 mm 1 mps 745 mmHg 70%
    20:00 +23°C° 0.3 mm 1 mps 745 mmHg 76%
    21:00 +21°C° 0.3 mm 2 mps 745 mmHg 74%
    22:00 +20°C° 0.3 mm 2 mps 745 mmHg 72%
    23:00 +20°C° 0.3 mm 2 mps 745 mmHg 71%
    Show more